Weather History for KADC - January, 2014

Change the Weather History Date:

Monday, January 20, 2014

  Actual Average Record
Temperature  
Mean Temperature 0 °F -  
Max Temperature 21 °F 18 °F 51 °F (1944)
Min Temperature -22 °F -3 °F -31 °F (1970)
Degree Days  
Heating Degree Days 64    
Moisture  
Dew Point -5 °F    
Average Humidity 74    
Maximum Humidity 100    
Minimum Humidity 46    
Precipitation  
Precipitation 0.00 in - - ()
Sea Level Pressure  
Sea Level Pressure 30.10 in    
Wind  
Wind Speed 12 mph (NNW)    
Max Wind Speed 18 mph    
Max Gust Speed 25 mph    
Visibility 9 miles    
Events Snow    
Averages and records for this station are not official NWS values.
T = Trace of Precipitation, MM = Missing Value Source: NWS Daily Summary

Daily Weather History Graph

Daily Weather History Graph

Search for Another Location

Airport or City:

Trip Planner

Search our weather history database for the weather conditions in past years. The results will help you decide how hot, cold, wet, or windy it might be!

Date:

Astronomy

Jan. 20, 2014 Rise Set
Actual Time 7:56 AM CST 5:07 PM CST
Civil Twilight 7:23 AM CST 5:40 PM CST
Nautical Twilight 6:46 AM CST 6:18 PM CST
Astronomical Twilight 6:10 AM CST 6:53 PM CST
Moon 10:02 PM CST (1/20) 9:39 AM CST (1/20)
Length of Visible Light 10h 17m
Length of Day
9h 10m
Waning Gibbous, 82% of the Moon is Illuminated
Jan 20
Waning Gibbous
Jan 23
Last Quarter
Jan 30
New
Feb 6
First Quarter
Feb 14
Full

Hourly Weather History & Observations

Time (CST) Temp. Windchill Dew Point Humidity Pressure Visibility Wind Dir Wind Speed Gust Speed Precip Events Conditions
12:15 AM 21.2 °F 9.5 °F 21.2 °F 100% 29.69 in 7.0 mi WNW 11.5 mph 17.3 mph N/A   Overcast
12:35 AM 21.2 °F 10.1 °F 19.4 °F 93% 29.69 in 7.0 mi WNW 10.4 mph - N/A   Overcast
12:53 AM 21.2 °F 7.3 °F 19.4 °F 93% 29.71 in 7.0 mi NW 16.1 mph 19.6 mph N/A   Overcast
1:15 AM 21.2 °F 8.9 °F 19.4 °F 93% 29.70 in 10.0 mi NW 12.7 mph - N/A   Overcast
1:35 AM 19.4 °F 6.6 °F 17.6 °F 93% 29.72 in 10.0 mi WNW 12.7 mph - N/A   Overcast
1:52 AM 19.4 °F 8.6 °F 17.6 °F 93% 29.72 in 10.0 mi NW 9.2 mph - N/A   Overcast
2:15 AM 19.4 °F 4.5 °F 17.6 °F 93% 29.75 in 10.0 mi NW 17.3 mph - N/A   Overcast
2:35 AM 19.4 °F 4.5 °F 17.6 °F 93% 29.75 in 10.0 mi NNW 17.3 mph - N/A   Overcast
2:52 AM 17.6 °F 3.7 °F 15.8 °F 93% 29.76 in 10.0 mi NW 13.8 mph 20.7 mph N/A   Overcast
3:15 AM 17.6 °F 5.7 °F 15.8 °F 93% 29.77 in 10.0 mi NW 10.4 mph - N/A   Overcast
3:35 AM 17.6 °F 7.3 °F 14.0 °F 86% 29.78 in 10.0 mi NW 8.1 mph - N/A   Overcast
3:53 AM 17.6 °F 7.3 °F 14.0 °F 86% 29.79 in 10.0 mi NNW 8.1 mph - N/A   Overcast
4:15 AM 15.8 °F 2.7 °F 12.2 °F 86% 29.80 in 10.0 mi NNE 11.5 mph - N/A   Overcast
4:34 AM 12.2 °F 0.7 °F 10.4 °F 92% 29.81 in 10.0 mi NNE 8.1 mph - N/A   Overcast
4:53 AM 12.2 °F -0.2 °F 10.4 °F 92% 29.82 in 10.0 mi NNE 9.2 mph - N/A   Overcast
5:15 AM 12.2 °F -1.8 °F 8.6 °F 85% 29.83 in 10.0 mi NNE 11.5 mph - N/A   Overcast
5:35 AM 10.4 °F -4.1 °F 6.8 °F 85% 29.83 in 10.0 mi North 11.5 mph - N/A   Overcast
5:53 AM 10.4 °F -4.8 °F 5.0 °F 79% 29.85 in 10.0 mi NNE 12.7 mph - N/A Snow Light Snow
6:15 AM 10.4 °F -6.0 °F 3.2 °F 73% 29.86 in 10.0 mi NNE 15.0 mph - N/A Snow Light Snow
6:35 AM 8.6 °F -7.0 °F 3.2 °F 79% 29.88 in 4.0 mi NNE 12.7 mph - N/A Snow Light Snow
6:52 AM 8.6 °F -7.7 °F 3.2 °F 79% 29.88 in 7.0 mi North 13.8 mph - N/A Snow Light Snow
7:15 AM 8.6 °F -3.7 °F 1.4 °F 73% 29.90 in 7.0 mi North 8.1 mph - N/A Snow Light Snow
7:35 AM 6.8 °F -8.6 °F 1.4 °F 79% 29.92 in 7.0 mi North 11.5 mph - N/A Snow Light Snow
7:53 AM 6.8 °F -5.9 °F 1.4 °F 79% 29.93 in 4.0 mi North 8.1 mph - N/A Snow Light Snow
8:15 AM 6.8 °F -7.8 °F 1.4 °F 79% 29.93 in 2.0 mi NNE 10.4 mph - N/A Snow Light Snow
8:35 AM 5.0 °F -11.6 °F 1.4 °F 85% 29.95 in 2.0 mi NNE 12.7 mph - N/A Snow Light Snow
8:53 AM 5.0 °F -11.6 °F -0.4 °F 78% 29.98 in 2.0 mi NNE 12.7 mph - N/A Snow Light Snow
9:15 AM 3.2 °F -14.6 °F -0.4 °F 85% 29.99 in 5.0 mi NNE 13.8 mph - N/A Snow Light Snow
9:35 AM 3.2 °F -14.6 °F -2.2 °F 78% 30.01 in 4.0 mi NNE 13.8 mph - N/A Snow Light Snow
9:53 AM 3.2 °F -12.2 °F -2.2 °F 78% 30.03 in 2.0 mi NE 10.4 mph - N/A Snow Light Snow
10:15 AM 1.4 °F -16.9 °F -5.8 °F 72% 30.06 in 5.0 mi NE 13.8 mph 19.6 mph N/A   Haze
10:35 AM 1.4 °F -15.3 °F -5.8 °F 72% 30.07 in 4.0 mi NE 11.5 mph 18.4 mph N/A   Haze
10:53 AM -0.4 °F -19.2 °F -7.6 °F 72% 30.09 in 5.0 mi NNE 13.8 mph 25.3 mph N/A Snow Light Snow
11:15 AM -0.4 °F -19.9 °F -7.6 °F 72% 30.10 in 7.0 mi NNE 15.0 mph - N/A   Clear
11:35 AM 1.4 °F -16.9 °F -7.6 °F 66% 30.11 in 7.0 mi NNE 13.8 mph 20.7 mph N/A   Scattered Clouds
11:52 AM 1.4 °F -16.1 °F -7.6 °F 66% 30.12 in 10.0 mi North 12.7 mph - N/A   Scattered Clouds
12:15 PM 1.4 °F -18.2 °F -7.6 °F 66% 30.12 in 10.0 mi North 16.1 mph - N/A   Clear
12:35 PM 1.4 °F -17.6 °F -9.4 °F 61% 30.13 in 10.0 mi North 15.0 mph - N/A   Clear
12:52 PM -0.4 °F -18.4 °F -11.2 °F 60% 30.14 in 10.0 mi North 12.7 mph - N/A   Clear
1:15 PM 1.4 °F -18.2 °F -9.4 °F 61% 30.16 in 10.0 mi North 16.1 mph - N/A   Clear
1:35 PM 1.4 °F -18.8 °F -9.4 °F 61% 30.17 in 10.0 mi North 17.3 mph - N/A   Clear
1:52 PM 1.4 °F -17.6 °F -9.4 °F 61% 30.18 in 10.0 mi North 15.0 mph - N/A   Clear
2:15 PM 1.4 °F -19.4 °F -11.2 °F 56% 30.20 in 10.0 mi North 18.4 mph - N/A   Clear
2:35 PM 1.4 °F -18.2 °F -9.4 °F 61% 30.21 in 10.0 mi North 16.1 mph 20.7 mph N/A   Clear
2:53 PM 1.4 °F -18.2 °F -11.2 °F 56% 30.22 in 10.0 mi North 16.1 mph - N/A   Clear
3:15 PM 1.4 °F -16.1 °F -11.2 °F 56% 30.23 in 10.0 mi North 12.7 mph 17.3 mph N/A   Clear
3:35 PM -0.4 °F -20.5 °F -11.2 °F 60% 30.26 in 10.0 mi North 16.1 mph 21.9 mph N/A   Clear
3:53 PM -0.4 °F -19.2 °F -11.2 °F 60% 30.27 in 10.0 mi North 13.8 mph 21.9 mph N/A   Clear
4:15 PM -0.4 °F -19.2 °F -14.8 °F 51% 30.29 in 10.0 mi North 13.8 mph - N/A   Clear
4:35 PM -0.4 °F -16.7 °F -16.6 °F 46% 30.30 in 10.0 mi North 10.4 mph - N/A   Clear
4:52 PM -2.2 °F -18.9 °F -16.6 °F 50% 30.31 in 10.0 mi North 10.4 mph - N/A   Clear
5:15 PM -4.0 °F -21.2 °F -16.6 °F 55% 30.32 in 10.0 mi North 10.4 mph - N/A   Clear
5:35 PM -5.8 °F -24.4 °F -14.8 °F 65% 30.34 in 10.0 mi NW 11.5 mph - N/A   Clear
5:53 PM -7.6 °F -25.7 °F -16.6 °F 65% 30.36 in 10.0 mi NW 10.4 mph - N/A   Clear
6:14 PM -9.4 °F -26.8 °F -16.6 °F 71% 30.37 in 10.0 mi NW 9.2 mph - N/A   Clear
6:35 PM -7.6 °F -26.6 °F -16.6 °F 65% 30.39 in 10.0 mi NNW 11.5 mph - N/A   Clear
6:53 PM -9.4 °F -28.9 °F -18.4 °F 65% 30.40 in 10.0 mi NNW 11.5 mph - N/A   Clear
7:14 PM -9.4 °F -27.9 °F -18.4 °F 65% 30.41 in 10.0 mi NW 10.4 mph - N/A   Clear
7:35 PM -11.2 °F -27.8 °F -20.2 °F 64% 30.42 in 10.0 mi NW 8.1 mph - N/A   Clear
7:53 PM -13.0 °F -31.3 °F -20.2 °F 70% 30.43 in 10.0 mi NW 9.2 mph - N/A   Clear
8:15 PM -14.8 °F -33.5 °F -20.2 °F 77% 30.43 in 10.0 mi NW 9.2 mph - N/A   Clear
8:35 PM -14.8 °F -33.5 °F -20.2 °F 77% 30.44 in 10.0 mi NW 9.2 mph - N/A   Clear
8:52 PM -16.6 °F -36.8 °F -22.0 °F 76% 30.44 in 10.0 mi NW 10.4 mph - N/A   Clear
9:14 PM -16.6 °F -35.7 °F -23.8 °F 70% 30.43 in 10.0 mi NW 9.2 mph - N/A   Clear
9:34 PM -18.4 °F -35.1 °F -23.8 °F 76% 30.44 in 10.0 mi WNW 6.9 mph - N/A   Clear
9:53 PM -18.4 °F -35.1 °F -23.8 °F 76% 30.44 in 10.0 mi WNW 6.9 mph - N/A   Clear
10:15 PM -18.4 °F -39.1 °F -23.8 °F 76% 30.44 in 10.0 mi WNW 10.4 mph - N/A   Clear
10:35 PM -18.4 °F -37.9 °F -25.6 °F 70% 30.44 in 10.0 mi NW 9.2 mph - N/A   Clear
10:53 PM -20.2 °F -40.1 °F -25.6 °F 76% 30.45 in 10.0 mi NW 9.2 mph - N/A   Clear
11:15 PM -20.2 °F -37.3 °F -27.4 °F 69% 30.45 in 10.0 mi WNW 6.9 mph - N/A   Clear
11:34 PM -20.2 °F -30.9 °F -27.4 °F 69% 30.44 in 10.0 mi West 3.5 mph - N/A   Clear
11:53 PM -22.0 °F -35.6 °F -27.4 °F 76% 30.44 in 10.0 mi WNW 4.6 mph - N/A   Clear